Location: Bothwell
(42.3833°S, 147.0000°E)
Time: 23:02:05
(UTC+10:00)

CUTE 1.7 + AOD 2 - Pass Details

Date: 31 January 2023
Orbit: 584 x 601 km, 97.7° (Epoch: 02 April)

Event Time Altitude Azimuth Distance (km) Brightness Sun altitude
Exits shadow 04:16:09 36° 349° (N) 951 ? -18.3°
Maximum altitude 04:17:43 64° 281° (W) 663 ? -18.1°
Drops below altitude 10° 04:21:55 10° 199° (SSW) 1,946 ? -17.5°
Sets 04:24:07 0° 195° (SSW) 2,858 ? -17.3°
